sat.trackr.live / text

‹ back to catalog

HULIANWANG DIGUI-32

NORAD 64285 · 2025-121C

PAYLOAD ACTIVE UNKNOWN

§ Identity

Operator
Country
PRC
Launch date
2025-06-05
Launch site
TAISC
Launch vehicle
Mass (kg)
RCS (m²)

External: N2YO · Heavens-Above · Gunter

§ Orbital elements

Epoch: 2026-05-25T02:39:25.242048Z

Period
108.73 min
Inclination
86.4970°
Eccentricity
0.0001663
Mean motion
13.24407896 rev/d
Perigee alt
1,166.7 km
Apogee alt
1,169.2 km
Semi-major
7,546.1 km
B*
3.2875e-5
RAAN
21.1983°
Arg perigee
83.4979°
Mean anomaly
276.6344°
Rev number
4,710

§ Raw data

HULIANWANG DIGUI-321 64285U 25121C   26145.11070882  .00000029  00000+0  32875-4 0  99902 64285  86.4970  21.1983 0001663  83.4979 276.6344 13.24407896 47109

JSON: /api/v1/satellites/64285 · /tle

For live sub-satellite position, see the globe view (requires WebGL).

§ Visibility from observer

Set your observer location to see the next 7 days of passes ≥ 10°. The values pass through the URL so the page stays shareable.

No JS? Fill the form by hand. The geolocation button needs JavaScript.